Location: Poughquag
(41.6090°N, 73.6820°W)
Time: 05:20:18
(UTC-04:00)

ITUPSAT 1 - Pass Details

Date: 28 June 2024
Orbit: 695 x 705 km, 98.5° (Epoch: 24 July)

Event Time Altitude Azimuth Distance (km) Brightness Sun altitude
Rises 00:27:28 0° 356° (N) 3,107 ? -24.7°
Reaches altitude 10° 00:30:28 10° 336° (NNW) 2,184 ? -24.8°
Maximum altitude 00:33:25 17° 298° (WNW) 1,772 ? -24.9°
Drops below altitude 10° 00:36:22 10° 259° (W) 2,174 ? -24.9°
Enters shadow 00:36:28 10° 258° (WSW) 2,199 ? -24.9°
